TimeEST,TemperatureF,Dew PointF,Humidity,Sea Level PressureIn,VisibilityMPH,Wind Direction,Wind SpeedMPH,Gust SpeedMPH,PrecipitationIn,Events,Conditions,WindDirDegrees,DateUTC
12:53 AM,78.1,69.1,74,30.05,10.0,ENE,15.0,-,N/A,,Overcast,60,2013-11-06 05:53:00
1:53 AM,77.0,69.1,76,30.03,10.0,ENE,16.1,-,0.00,,Overcast,60,2013-11-06 06:53:00
2:53 AM,77.0,70.0,79,30.02,10.0,ENE,18.4,24.2,N/A,,Overcast,60,2013-11-06 07:53:00
3:11 AM,77.0,69.8,78,30.02,10.0,ENE,17.3,24.2,N/A,,Overcast,60,2013-11-06 08:11:00
3:53 AM,77.0,69.1,76,30.02,10.0,ENE,16.1,-,N/A,,Overcast,60,2013-11-06 08:53:00
4:53 AM,77.0,69.1,76,30.03,10.0,ENE,16.1,-,N/A,,Overcast,60,2013-11-06 09:53:00
5:53 AM,77.0,69.1,76,30.04,10.0,ENE,13.8,-,N/A,,Overcast,60,2013-11-06 10:53:00
6:53 AM,77.0,69.1,76,30.05,10.0,ENE,12.7,-,0.00,,Overcast,70,2013-11-06 11:53:00
7:53 AM,78.1,71.1,79,30.06,10.0,ENE,13.8,-,0.00,,Overcast,60,2013-11-06 12:53:00
8:24 AM,75.2,71.6,89,30.07,8.0,ENE,6.9,-,0.01,Rain,Light Rain,60,2013-11-06 13:24:00
8:46 AM,78.8,71.6,78,30.07,10.0,ENE,12.7,21.9,0.01,,Overcast,60,2013-11-06 13:46:00
8:53 AM,79.0,71.1,77,30.07,10.0,ENE,13.8,21.9,0.01,,Overcast,70,2013-11-06 13:53:00
9:53 AM,79.0,70.0,74,30.08,10.0,ENE,15.0,24.2,N/A,,Overcast,70,2013-11-06 14:53:00
10:03 AM,82.4,71.6,70,30.07,10.0,ENE,18.4,27.6,N/A,,Overcast,70,2013-11-06 15:03:00
10:35 AM,82.4,71.6,70,30.08,10.0,East,19.6,26.5,N/A,,Overcast,80,2013-11-06 15:35:00
10:53 AM,81.0,71.1,72,30.08,10.0,ENE,18.4,25.3,N/A,,Overcast,70,2013-11-06 15:53:00
11:16 AM,82.4,71.6,70,30.07,10.0,East,17.3,23.0,N/A,,Overcast,90,2013-11-06 16:16:00
11:25 AM,82.4,69.8,66,30.07,10.0,ENE,17.3,26.5,N/A,,Overcast,70,2013-11-06 16:25:00
11:37 AM,82.4,69.8,66,30.06,10.0,ENE,15.0,21.9,N/A,,Overcast,60,2013-11-06 16:37:00
11:53 AM,82.0,70.0,67,30.06,10.0,ENE,13.8,-,N/A,,Overcast,70,2013-11-06 16:53:00
12:02 PM,80.6,69.8,70,30.06,10.0,ENE,16.1,20.7,N/A,,Overcast,70,2013-11-06 17:02:00
12:37 PM,82.4,69.8,66,30.05,10.0,ENE,15.0,23.0,N/A,,Mostly Cloudy,70,2013-11-06 17:37:00
12:48 PM,82.4,69.8,66,30.04,10.0,East,13.8,23.0,N/A,,Mostly Cloudy,80,2013-11-06 17:48:00
12:53 PM,82.9,70.0,65,30.04,10.0,ENE,16.1,-,N/A,,Mostly Cloudy,60,2013-11-06 17:53:00
1:02 PM,84.2,69.8,62,30.03,10.0,East,13.8,-,N/A,,Mostly Cloudy,80,2013-11-06 18:02:00
1:13 PM,82.4,69.8,66,30.03,10.0,ENE,15.0,-,N/A,,Mostly Cloudy,70,2013-11-06 18:13:00
1:53 PM,84.0,69.1,61,30.02,10.0,East,12.7,20.7,N/A,,Mostly Cloudy,80,2013-11-06 18:53:00
2:05 PM,84.2,69.8,62,30.01,10.0,ENE,16.1,-,N/A,,Mostly Cloudy,70,2013-11-06 19:05:00
2:35 PM,82.4,69.8,66,30.02,10.0,East,15.0,-,N/A,,Mostly Cloudy,80,2013-11-06 19:35:00
2:53 PM,82.0,69.1,65,30.01,10.0,ENE,15.0,-,N/A,,Mostly Cloudy,60,2013-11-06 19:53:00
3:53 PM,82.0,68.0,62,30.01,10.0,ENE,10.4,-,N/A,,Partly Cloudy,60,2013-11-06 20:53:00
4:53 PM,80.1,68.0,67,30.02,10.0,NE,10.4,-,N/A,,Mostly Cloudy,50,2013-11-06 21:53:00
5:53 PM,78.1,66.9,68,30.02,10.0,ENE,8.1,-,N/A,,Clear,60,2013-11-06 22:53:00
6:53 PM,77.0,68.0,74,30.03,10.0,NE,6.9,-,N/A,,Clear,40,2013-11-06 23:53:00
7:53 PM,77.0,68.0,74,30.04,10.0,NE,4.6,-,N/A,,Clear,40,2013-11-07 00:53:00
8:53 PM,75.9,69.1,79,30.05,10.0,Calm,Calm,-,N/A,,Clear,0,2013-11-07 01:53:00
9:53 PM,73.9,69.1,85,30.05,10.0,NNE,3.5,-,N/A,,Clear,30,2013-11-07 02:53:00
10:53 PM,73.0,69.1,87,30.04,10.0,Calm,Calm,-,N/A,,Partly Cloudy,0,2013-11-07 03:53:00
11:53 PM,72.0,68.0,87,30.04,10.0,Calm,Calm,-,N/A,,Clear,0,2013-11-07 04:53:00